Hourly Weather Roundup
Issued by NWS Central Illinois

Home | Current Version | Previous Version | Text Only | Print | Product List | Glossary On
Versions: 1 2 3 4 5 6 7 8 9 10 11 12 13 14 15 16 17 18 19 20 21 22 23 24 25 26 27 28 29 30 31 32 33 34 35 36 37 38 39 40 41 42 43 44 45 46 47 48 49 50
000
NZUS43 KILX 231310
HWRILX

AREA WEATHER ROUNDUP
NATIONAL WEATHER SERVICE, LINCOLN IL
800 AM CDT TUE SEP 23 2014


CITY           SKY/WX    TMP DP  RH WIND       PRES   REMARKS
BLOOMINGTON    SUNNY     51  47  86 S8        30.34R
CHAMPAIGN      SUNNY     52  48  86 SE8       30.34R
DECATUR        SUNNY     49  46  90 CALM      30.34R
FLORA          SUNNY     48  47  97 CALM      30.32S
GALESBURG      SUNNY    N/A N/A N/A SE5       30.32R
JACKSONVILLE   SUNNY     51  48  90 CALM      30.32S
LACON          SUNNY     49  46  90 CALM      30.32S
LAWRENCEVILLE  SUNNY     51  49  92 NE3       30.34R
LITCHFIELD     SUNNY     51  47  87 SE3       30.32R
$$


CITY           SKY/WX    TMP DP  RH WIND       PRES   REMARKS
LINCOLN        SUNNY     49  45  87 CALM      30.31F
MACOMB         SUNNY     44  44 100 CALM      30.33S
MATTOON        SUNNY     51  46  83 SE3       30.33R
MT CARMEL AP   SUNNY     48  48 100 CALM      30.33R
OLNEY-NOBLE AP SUNNY     50  46  87 CALM      30.33R
PARIS          SUNNY     49  49 100 CALM      30.35R
PEORIA         SUNNY     54  47  77 CALM      30.33R
PONTIAC        SUNNY     48  48 100 CALM      30.33S
RANTOUL        SUNNY     52  46  82 CALM      30.35R
ROBINSON       SUNNY     49  49  99 CALM      30.35R
SPRINGFIELD    SUNNY     52  46  80 CALM      30.33R
TAYLORVILLE    SUNNY     48  46  93 CALM      30.32S
$$

...REGIONAL REPORTS...


CITY           SKY/WX    TMP DP  RH WIND       PRES   REMARKS
CHICAGO O`HARE SUNNY     54  43  66 SW5       30.33R
KANKAKEE       SUNNY     48  46  93 CALM      30.35R FOG
MOLINE         SUNNY     49  46  90 CALM      30.31R
MOUNT VERNON   SUNNY     48  45  87 N3        30.32R
PITTSFIELD     MOSUNNY   52  47  85 CALM      30.32R
QUINCY         MOSUNNY   53  45  74 SE6       30.30R
ROCKFORD       MOSUNNY   48  44  86 S3        30.35R
$$


CITY           SKY/WX    TMP DP  RH WIND       PRES   REMARKS
BURLINGTON     SUNNY     54  47  77 CALM      30.31R
CEDAR RAPIDS   SUNNY     49  48  97 SE6       30.29R
DES MOINES     MOCLDY    55  49  80 S6        30.25R
KIRKSVILLE     PTSUNNY   52  49  89 S3        30.29S
OTTUMWA        MOSUNNY   51  47  86 SE3       30.27S
ST LOUIS       MOSUNNY   56  51  84 CALM      30.31R
$$


CITY           SKY/WX    TMP DP  RH WIND       PRES   REMARKS
TERRE HAUTE    SUNNY     49  47  93 CALM      30.33S
EVANSVILLE     SUNNY     53  48  83 NE3       30.32R
INDIANAPOLIS   SUNNY     53  46  77 CALM      30.35R
LAFAYETTE      SUNNY     48  47  96 CALM      30.35R
MADISON        SUNNY     50  46  86 CALM      30.30R
MILWAUKEE      SUNNY     56  46  69 W3        30.30S
$$




USA.gov is the U.S. government's official web portal to all federal, state and local government web resources and services.